Location: B�hl
(48.6968°N, 8.1352°E)
Time: 08:42:11
(UTC+00:00)

Meteor 2-9 Rocket - Pass Details

Date: 08 March 2021
Orbit: 792 x 895 km, 81.3° (Epoch: 12 April)

Event Time Altitude Azimuth Distance (km) Brightness Sun altitude
Exits shadow 20:10:37 70° 11° (NNE) 850 4.1 -27.8°
Drops below altitude 10° 20:15:18 10° 12° (NNE) 2,371 6.7 -28.4°
Sets 20:17:40 0° 12° (NNE) 3,305 7.5 -28.8°
